Regional Weather Roundup
Issued by NWS Sterling, VA

Home | Current Version | Previous Version | Text Only | Print | Product List | Glossary On
Versions: 1 2 3 4 5 6 7 8 9 10 11 12 13 14 15 16 17 18 19 20 21 22 23 24 25 26 27 28 29 30 31 32 33 34 35 36 37 38 39 40 41 42 43 44 45 46 47 48 49 50
000
ASUS41 KLWX 041310
RWRLWX

REGIONAL WEATHER ROUNDUP
NATIONAL WEATHER SERVICE BALTIMORE MD/WASHINGTON DC
900 AM EDT FRI SEP 04 2015

Note: "FAIR" indicates few or no clouds below 12,000 feet
with no significant weather and/or obstructions to visibility.
 TC=TEMPERATURE CELSIUS

 * =Non NWS site. Station does not report precipitation (e.g. rain,
    snow, etc.), thunder, or fog.

DCZ001-MDZ009-015-VAZ040>042-051-053>054-041400-
WASHINGTON METRO

CITY           SKY/WX    TMP DP  RH WIND       PRES   REMARKS
WASHINGTON NAT PTSUNNY   81  69  67 N8        30.00R
DULLES         MOSUNNY   79  68  69 N8        30.01R
ANDREWS AFB    SUNNY     79  69  71 N9        29.99R
FT BELVOIR     SUNNY     79  69  71 NW5       29.99R
QUANTICO       MOSUNNY   81  68  64 N7        29.99S
COLLEGE PARK*  SUNNY     79  70  73 CALM      29.99R
LEESBURG*      SUNNY     81  72  74 N8        30.03S
MANASSAS*      SUNNY     79  72  78 N7        30.00R
GAITHERSBURG*  SUNNY     75  68  78 CALM      30.05S

$$

MDZ006>007-011-014-041400-
BALTIMORE METRO

CITY           SKY/WX    TMP DP  RH WIND       PRES   REMARKS
BWI AIRPORT    MOSUNNY   81  68  64 N3        29.99R
MD SCIENCE CTR   N/A     81  67  62 MISG      29.99R
MARTIN STATE   SUNNY     79  73  83 CALM      30.00R
ANNAPOLIS      SUNNY     80  73  79 N3        29.98R
FORT MEADE*    SUNNY     77  68  73 N3        30.02R

$$

MDZ012-015-019>023-041400-
MARYLAND EASTERN SHORE

CITY           SKY/WX    TMP DP  RH WIND       PRES   REMARKS
OCEAN CITY     MOSUNNY   79  75  87 E8        29.97R
SALISBURY      SUNNY     77  73  87 NE5       29.97R FOG
BAY BRIDGE AP*   N/A     77  72  83 NE5       29.98R
CAMBRIDGE*       N/A     77  72  83 E3        29.97R
EASTON*        SUNNY     77  77 100 NE5       30.02R FOG

$$

MDZ017>025-041400-
SOUTHERN MARYLAND

CITY           SKY/WX    TMP DP  RH WIND       PRES   REMARKS
PATUXENT RIVER MOSUNNY   81  74  79 N3        29.97R HAZE
ST INIGOES     SUNNY     81  75  82 CALM      29.96R
LEONARDTOWN*   NOT AVBL

$$

MDZ003>005-041400-
NORTH CENTRAL MARYLAND

CITY           SKY/WX    TMP DP  RH WIND       PRES   REMARKS
FREDERICK*     SUNNY     75  73  94 CALM      30.05R
HAGERSTOWN APT SUNNY     74  68  81 CALM      30.04S HAZE
WESTMINSTER*   SUNNY     75  70  83 N5        30.03S

$$

MDZ501>502-041400-
WESTERN MARYLAND

CITY           SKY/WX    TMP DP  RH WIND       PRES   REMARKS
OAKLAND*       SUNNY     64  63  94 NW3       30.17R FOG
CUMBERLAND*    SUNNY     70  70 100 CALM      30.10S

$$

VAZ025>031-041400-
SHENANDOAH VALLEY

CITY           SKY/WX    TMP DP  RH WIND       PRES   REMARKS
WINCHESTER*    SUNNY     73  70  88 CALM      30.05R HAZE
FRONT ROYAL*   FAIR      72  70  94 CALM      30.05R
LURAY*         FAIR      68  68 100 S3        30.06S FOG
NEW MARKET*    FAIR      68  67  96 CALM      30.06R
STAUNTON*      SUNNY     71  69  93 CALM      30.09S
WAYNESBORO*    FAIR      72  67  83 CALM      30.09S

$$

WVZ021-048>050-054>055-041400-
EASTERN WEST VIRGINIA PANHANDLE

CITY           SKY/WX    TMP DP  RH WIND       PRES   REMARKS
MARTINSBURG    SUNNY     72  68  87 CALM      30.05R FOG
PETERSBURG*    FOG       66  66 100 CALM      30.09S VSB 1/2

$$

VAZ036>039-050-041400-
CENTRAL FOOTHILLS

CITY           SKY/WX    TMP DP  RH WIND       PRES   REMARKS
CHARLOTTESVILL SUNNY     78  69  73 CALM      30.02R
CULPEPER*      SUNNY     76  70  80 N3        30.01S
ORANGE*        MOSUNNY   79  70  73 N7        30.02S
GORDONSVILLE*  FAIR      80  70  71 NE5       30.00S
WARRENTON*     FAIR      80  73  77 NE3       30.00F

$$

VAZ055>057-041400-
NORTH AND CENTRAL PIEDMONT

CITY           SKY/WX    TMP DP  RH WIND       PRES   REMARKS
FREDERICKSBRG* SUNNY     77  70  77 NW7       29.99R
STAFFORD*      SUNNY     79  69  69 N6        30.03S

$$

NCZ024-NYZ072-PAZ021-071-VAZ022-071-041400-
OTHER REGIONAL OBSERVATIONS

CITY           SKY/WX    TMP DP  RH WIND       PRES   REMARKS
NEW YORK CITY  SUNNY     79  67  66 NE8       30.06R
PHILADELPHIA   MOSUNNY   82  68  62 NE9       30.01R
PITTSBURGH     PTSUNNY   72  65  78 CALM      30.08R
ROANOKE        SUNNY     74  67  78 CALM      30.08R
RICHMOND       MOSUNNY   80  70  71 N8        29.98R
RALEIGH        MOSUNNY   77  70  79 CALM      29.99R

$$

ANZ530>537-041400-
MARINE OBSERVATIONS

STATION/POSITION TIME  TEMP    WIND        PRES
                       AIR SEA DIR/SP/G
                 (UTC) (F)     (DEG/KT/KT) (MB)
THOMAS PT LIGHT  NOT AVBL
BALT KEY BRIDGE  1200   77      10/  5/  7 1015.1R
COVE POINT       1200   79      20/  6/  8 1015.2R
LEWISETTA        1200   78 82  330/  2/  2 1014.0R
SOLOMONS ISLAND  1200      82                N/A
PINEY POINT      1205           10/  4/  5   N/A

$$



USA.gov is the U.S. government's official web portal to all federal, state and local government web resources and services.